Weather History for KSAD - January, 2014

Change the Weather History Date:

Friday, January 31, 2014

  Actual Average Record
Temperature  
Mean Temperature 62 °F -  
Max Temperature 69 °F 62 °F 77 °F (1987)
Min Temperature 54 °F 31 °F 16 °F (1969)
Degree Days  
Heating Degree Days 4    
Growing Degree Days 12 (Base 50)    
Moisture  
Dew Point 27 °F    
Average Humidity 29    
Maximum Humidity 47    
Minimum Humidity 18    
Precipitation  
Precipitation 0.00 in - - ()
Sea Level Pressure  
Sea Level Pressure 29.71 in    
Wind  
Wind Speed 11 mph (North)    
Max Wind Speed 25 mph    
Max Gust Speed 33 mph    
Visibility 10 miles    
Events      
Averages and records for this station are not official NWS values.
T = Trace of Precipitation, MM = Missing Value Source: NWS Daily Summary

Daily Weather History Graph

Daily Weather History Graph

Search for Another Location

Airport or City:

Trip Planner

Search our weather history database for the weather conditions in past years. The results will help you decide how hot, cold, wet, or windy it might be!

Date:

Astronomy

Jan. 31, 2014 Rise Set
Actual Time 7:14 AM MST 5:50 PM MST
Civil Twilight 6:48 AM MST 6:16 PM MST
Nautical Twilight 6:18 AM MST 6:45 PM MST
Astronomical Twilight 5:49 AM MST 7:14 PM MST
Moon 7:32 AM MST (1/31) 7:11 PM MST (1/31)
Length of Visible Light 11h 27m
Length of Day
10h 36m
New Moon, 1% of the Moon is Illuminated
Jan 31
New Moon
Feb 6
First Quarter
Feb 14
Full
Feb 22
Last Quarter
Mar 1
New

Hourly Weather History & Observations

Time (MST) Temp. Dew Point Humidity Pressure Visibility Wind Dir Wind Speed Gust Speed Precip Events Conditions
12:51 AM 54.0 °F 19.9 °F 26% 29.73 in 10.0 mi ENE 5.8 mph - N/A   Mostly Cloudy
1:51 AM 57.0 °F 19.9 °F 24% 29.72 in 10.0 mi East 8.1 mph - N/A   Overcast
2:51 AM 57.9 °F 21.0 °F 24% 29.71 in 10.0 mi East 4.6 mph - N/A   Mostly Cloudy
3:51 AM 57.9 °F 21.0 °F 24% 29.70 in 10.0 mi East 6.9 mph - N/A   Scattered Clouds
4:51 AM 57.0 °F 21.0 °F 25% 29.71 in 10.0 mi ENE 3.5 mph - N/A   Partly Cloudy
5:51 AM 57.0 °F 21.0 °F 25% 29.72 in 10.0 mi East 8.1 mph - N/A   Mostly Cloudy
6:51 AM 57.0 °F 21.9 °F 26% 29.73 in 10.0 mi ENE 10.4 mph - N/A   Clear
7:51 AM 55.9 °F 23.0 °F 28% 29.74 in 10.0 mi NE 5.8 mph - N/A   Scattered Clouds
8:51 AM 59.0 °F 25.0 °F 27% 29.77 in 10.0 mi ESE 3.5 mph - N/A   Overcast
9:51 AM 63.0 °F 27.0 °F 26% 29.76 in 10.0 mi South 16.1 mph - N/A   Overcast
10:51 AM 64.9 °F 28.0 °F 25% 29.76 in 10.0 mi South 16.1 mph 29.9 mph N/A   Overcast
11:51 AM 68.0 °F 23.0 °F 18% 29.75 in 9.0 mi West 21.9 mph 29.9 mph N/A   Overcast
12:51 PM 69.1 °F 24.1 °F 18% 29.71 in 10.0 mi WNW 18.4 mph - N/A   Mostly Cloudy
1:51 PM 66.9 °F 24.1 °F 20% 29.68 in 10.0 mi NW 19.6 mph - N/A   Mostly Cloudy
2:51 PM 66.9 °F 25.0 °F 21% 29.66 in 10.0 mi NW 17.3 mph 28.8 mph N/A   Clear
3:51 PM 64.0 °F 26.1 °F 24% 29.66 in 10.0 mi NW 25.3 mph 33.4 mph N/A   Clear
4:51 PM 62.1 °F 28.0 °F 28% 29.67 in 10.0 mi NNW 20.7 mph 27.6 mph N/A   Clear
5:51 PM 60.1 °F 30.9 °F 33% 29.68 in 10.0 mi NW 20.7 mph 27.6 mph N/A   Clear
6:51 PM 59.0 °F 33.1 °F 38% 29.69 in 10.0 mi NNW 18.4 mph 23.0 mph N/A   Clear
7:51 PM 57.9 °F 35.1 °F 42% 29.70 in 10.0 mi NNW 20.7 mph - N/A   Clear
8:51 PM 55.9 °F 35.1 °F 45% 29.71 in 10.0 mi NW 17.3 mph - N/A   Partly Cloudy
9:51 PM 55.0 °F 34.0 °F 45% 29.70 in 10.0 mi NW 21.9 mph 27.6 mph N/A   Clear
10:51 PM 55.0 °F 35.1 °F 47% 29.71 in 10.0 mi NW 18.4 mph - N/A   Partly Cloudy
11:51 PM 55.0 °F 35.1 °F 47% 29.71 in 10.0 mi NW 16.1 mph - N/A   Scattered Clouds